Weather observations for the past three days for
Napa, Napa County Airport
Imperial (Metric)
Date Time (pdt) Wind (mph) Vis. (mi.) Weather Sky Cond. Temperature (ºF) Relative Humidity Wind Chill (°F) Heat Index (°F) Pressure Precipitation (in)
Air Dwpt 6 hour altimeter (in) sea level (mb) 1 hr 3 hr 6 hr
Max. Min.
19 01:54 SW 9 10.00 Fair CLR 62.1 57 84% 29.98 1014.3
19 00:54 SW 12 10.00 Fair CLR 62.1 55.9 80% 29.99 1014.5
18 23:54 SW 12 10.00 Fair CLR 64 57 78% 29.99 1014.6
18 22:54 S 8 10.00 Fair CLR 64 57 81 64 78% 29.99 1014.7
18 21:54 S 6 10.00 Fair CLR 64 57 78% 29.99 1014.5
18 20:54 S 9 10.00 Fair CLR 66 57 73% 29.97 1013.9
18 19:54 S 14 10.00 Fair CLR 72 57 59% 29.95 1013.2
18 18:54 S 12 10.00 Fair CLR 77 57 50% 79 29.93 1012.6
18 17:54 S 13 10.00 Fair CLR 78.1 57.9 50% 79 29.93 1012.8
18 16:54 S 13 10.00 Fair CLR 81 61 82 70 51% 82 29.94 1013.0
18 15:54 S 13 10.00 Fair CLR 79 59 50% 80 29.95 1013.5
18 14:54 Calm 10.00 Fair CLR 80.1 59 49% 81 29.96 1013.8
18 13:54 SW 9 10.00 Fair CLR 79 57.9 49% 80 29.98 1014.3
18 12:54 S 8 10.00 Fair CLR 77 57.9 52% 79 29.99 1014.7
18 11:54 S 9 10.00 Fair CLR 73.9 57.9 57% 30 1014.9
18 10:54 SW 7 10.00 Fair CLR 71.1 57.9 71.1 52 63% 29.99 1014.8
18 09:54 Vrbl 5 10.00 Fair CLR 66.9 57 71% 30 1015.0
18 08:54 W 6 10.00 Fair CLR 63 55.9 78% 30.01 1015.3
18 07:54 Calm 10.00 A Few Clouds FEW007 61 57 87% 30 1015.1
18 06:54 Calm 10.00 Fair CLR 53.1 51.1 93% 29.99 1014.7
18 05:54 Calm 10.00 Mostly Cloudy BKN007 54 52 93% 29.98 1014.3
18 04:54 Calm 10.00 Fair CLR 54 52 62.1 53.1 93% 29.98 1014.2
18 03:54 Calm 10.00 Fair CLR 57 55 93% 29.97 1013.9
18 02:54 Calm 10.00 Fair CLR 57 54 90% 29.97 1014.0
18 01:54 Calm 10.00 A Few Clouds FEW008 57.9 55 90% 29.97 1014.1
18 00:54 SW 12 10.00 Fair CLR 59 55 87% 29.98 1014.4
17 23:54 SW 9 10.00 Fair CLR 61 55.9 84% 29.99 1014.5
17 22:54 SW 5 10.00 Fair CLR 62.1 55 79 61 78% 29.98 1014.3
17 21:54 SW 10 10.00 Fair CLR 63 55.9 78% 29.97 1014.0
17 20:54 SW 9 10.00 Fair CLR 66 55.9 70% 29.96 1013.6
17 19:54 SW 13 10.00 Fair CLR 71.1 55.9 59% 29.95 1013.4
17 18:54 S 13 10.00 Fair CLR 75.9 60.1 58% 78 29.96 1013.5
17 17:54 SW 13 10.00 Fair CLR 78.1 60.1 54% 79 29.96 1013.6
17 16:54 S 14 10.00 Fair CLR 79 59 80.1 66.9 50% 80 29.97 1013.9
17 15:54 S 15 10.00 Fair CLR 80.1 59 49% 81 29.98 1014.4
17 14:54 S 13 10.00 Fair CLR 78.1 57.9 50% 79 30 1014.9
17 13:54 S 14 10.00 Fair CLR 75.9 57.9 54% 78 30.02 1015.6
17 12:54 S 14 10.00 Fair CLR 73 57 57% 30.03 1016.0
17 11:54 S 12 10.00 Fair CLR 71.1 55.9 59% 30.04 1016.3
17 10:54 SW 10 10.00 Fair CLR 66.9 55 66.9 57 66% 30.05 1016.6
17 09:54 SW 9 10.00 Fair CLR 64 54 70% 30.04 1016.5
17 08:54 W 9 10.00 Overcast OVC012 60.1 53.1 78% 30.04 1016.5
17 07:54 W 9 10.00 Overcast OVC012 59 53.1 81% 30.04 1016.4
17 06:54 W 8 10.00 Overcast OVC012 57.9 53.1 84% 30.03 1016.0
17 05:54 W 10 10.00 Overcast OVC012 57.9 53.1 84% 30.01 1015.5
17 04:54 W 8 10.00 Overcast OVC010 57 53.1 57.9 57 87% 30.01 1015.3
17 03:54 W 10 10.00 Overcast OVC010 57 53.1 87% 30 1015.1
17 02:54 W 14 10.00 Overcast OVC013 57 53.1 87% 30.01 1015.2
17 01:54 W 14 10.00 Fair CLR 57 52 83% 30.01 1015.3
17 00:54 W 13 10.00 Fair CLR 57 52 83% 30.02 1015.5
16 23:54 W 14 10.00 Fair CLR 57 52 83% 30 1015.1
16 22:54 W 16 G 24 10.00 Fair CLR 57.9 52 77 57.9 81% 30 1014.9
16 20:54 W 17 G 26 10.00 Fair CLR 61 52 72% 29.99 1014.8
16 19:54 W 20 G 28 10.00 Fair CLR 64 51.1 63% 29.98 1014.4
16 18:54 W 18 G 28 10.00 Fair CLR 68 51.1 55% 29.97 1014.1
16 17:54 W 18 10.00 Fair CLR 73.9 52 46% 29.96 1013.7
16 16:54 SW 20 10.00 Fair CLR 73.9 55 77 70 52% 29.97 1014.0
16 15:54 S 23 10.00 Fair and Breezy CLR 75 55 50% 78 29.98 1014.4
16 14:54 SW 18 10.00 Fair CLR 75.9 55 48% 78 29.99 1014.6
16 13:54 S 16 10.00 Fair CLR 75 55 50% 78 30 1015.2
16 12:54 S 17 10.00 Fair CLR 73 54 51% 30.01 1015.4
16 11:54 S 14 10.00 Fair CLR 71.1 54 55% 30.02 1015.7
16 10:54 W 10 10.00 Fair CLR 70 52 71.1 54 53% 30.02 1015.7
16 09:54 W 10 10.00 A Few Clouds FEW018 64.9 52 63% 30.03 1015.9
16 08:54 W 12 10.00 Partly Cloudy SCT018 63 52 68% 30.03 1016.2
16 07:54 W 10 10.00 Fair CLR 60.1 52 75% 30.03 1015.9
16 06:54 W 10 10.00 A Few Clouds FEW002 55.9 51.1 84% 30.01 1015.4
16 05:54 W 7 10.00 Fair CLR 55 50 83% 30.01 1015.2
16 04:54 W 8 10.00 Fair CLR 55 50 59 54 83% 29.99 1014.6
16 03:54 W 9 10.00 Fair CLR 55.9 50 81% 29.98 1014.3
16 02:54 W 14 10.00 Fair CLR 57 51.1 81% 29.98 1014.3
Date Time (pdt) Wind (mph) Vis. (mi.) Weather Sky Cond. Air Dwpt Max. Min. Relative Humidity Wind Chill (°F) Heat Index (°F) altimeter (in) sea level (mb) 1 hr 3 hr 6 hr
6 hour
Temperature (ºF) Pressure Precipitation (in)